COSMOS 1579 COOLANT, 26517

Orbit data source: Space-Track

COSMOS 1579 COOLANT, 26517 is space debris in LEO originally from a launch on Fri, 29 Jun 1984 UTC launched from the Tyuratam Missile And Space Complex (TTMTR). Debris objects in space refer to the collection of defunct objects orbiting the Earth. Examples of debris include non-operational satellites, rocket bodies, and fragments generated from explosions, collisions, or faulty payload assembly.

Loading next visibility...
Identifier
26517, 1984-069J
Orbit
LEO
Country
Flag of CISCIS
Related business
Manufacturer
Unknown
Mission
Spacecraft
Bus & Motor
Unknown
Mass
Unknown
Launch date (UTC)
1984-06-29 (41 years ago)
Launch vehicle
Unknown
Launch site
Tyuratam Missile And Space Complex (TTMTR)
Object type
Payload
Rocket body
Debris
Shape & HBR
Unknown shape, 0.1 m
Radar Cross Section
Small (<0.1 m²)

Expand to show TLE details & history
Last TLE update: 3 days ago

TLE from 3 days ago
0 COSMOS 1579 COOLANT
1 26517U 84069J   25347.37919235  .00000196  00000-0  22656-3 0  9998
2 26517  65.0516  29.0056 0030138  62.0494 313.3586 13.91147384629500
Epoch: 2025-12-13T09:06Z
TLE epoch observation values (Epoch: 2025-12-13T09:06:02.219Z)
Latitude
13.6981°
Longitude
176.66554°
Altitude
910.737 km
Speed
7.406 km/s
True Right ascension
02h 21m 55s
True Declination
13° 37' 15"
Sunlit
Object was in full shadow at epoch
Visualization orbit readout
Latitude
Unknown
Longitude
Unknown
Altitude
Unknown
Speed
Unknown
Apparent Right ascension
Unknown
Apparent Declination
Unknown
Sunlit
N/A
Visualization observer readout
Local Sidereal Time
23:22:48
Azimuth
Unknown
Elevation
Unknown
Doppler factor
Unknown
Orbital elements
Apogee altitude
945.216 km
Perigee altitude
901.207 km
Semi-major axis
7,301.348 km
Eccentricity
0.00301
Inclination
65.0516°
RAAN
29.0056°
Arg. of periapsis
62.0494°
True anomaly
313.10685°
Mean anomaly
313.3586°
Eccentric anomaly
313.23279°
Mean motion
3.47887 °/min
Orbital period
103.48 mins
BSTAR
0.00022656
Loading maneuver chart data...
Computing Atmospheric mass density...

Documentation

Showing up to 5 results
|